Location: Bergheim
(50.9593°N, 6.6400°E)
Time: 17:23:59
(UTC+01:00)

ISS - Pass Details

Date: 27 November 2019
Orbit: 411 x 421 km, 51.6° (Epoch: 14 December)

Event Time Altitude Azimuth Distance (km) Brightness Sun altitude
Rises 17:35:14 0° 225° (SW) 2,346 1.5 -9.4°
Reaches altitude 10° 17:37:25 10° 216° (SW) 1,489 0.0 -9.7°
Maximum altitude 17:40:28 33° 150° (SSE) 719 -2.7 -10.2°
Enters shadow 17:42:51 15° 90° (E) 1,250 -1.9 -10.5°
